Regional Weather Roundup
Issued by NWS

Home | Current Version | Previous Version | Text Only | Print | Product List | Glossary Off
Versions: 1 2 3 4 5 6 7 8 9 10 11 12 13 14 15 16 17 18 19 20 21 22 23 24 25 26 27 28 29 30 31 32 33 34 35 36 37 38 39 40 41 42 43 44 45 46 47 48 49 50

197
ASUS43 KLOT 290903
RWRIL

ILLINOIS REGIONAL WEATHER ROUNDUP
NATIONAL WEATHER SERVICE CHICAGO/ROMEOVILLE IL
400 AM CDT SUN MAY 29 2016

NOTE: "FAIR" INDICATES FEW OR NO CLOUDS BELOW 12,000 FEET WITH NO
SIGNIFICANT WEATHER AND/OR OBSTRUCTIONS TO VISIBILITY.

* THESE STATIONS ARE NOT UNDER NWS QUALITY CONTROL. THEY ALSO MAY NOT
  REPORT WEATHER SUCH AS PRECIPITATION OR FOG.

ILZ001-002-007-009-015-016-024-291000-
NORTHWEST ILLINOIS

CITY           SKY/WX    TMP DP  RH WIND       PRES   REMARKS
MOLINE         CLEAR     67  58  72 SW10G18   29.93S
STERLING*      CLEAR     66  61  84 VRB5      29.94S
$$

ILZ003-004-008-010-011-017-018-291000-
NORTH CENTRAL ILLINOIS

CITY           SKY/WX    TMP DP  RH WIND       PRES   REMARKS
ROCKFORD       PTCLDY    65  61  87 S9        29.94F
FREEPORT*      CLEAR     63  60  90 S10       29.94S
ROCHELLE*      CLEAR     64  62  94 S10       29.94F
$$

ILZ005-006-012>014-019>023-291000-
NORTHEAST ILLINOIS

CITY           SKY/WX    TMP DP  RH WIND       PRES   REMARKS
CHICAGO-OHARE  MOCLDY    64  61  90 SW5       29.95R
CHICAGO-MIDWAY MOCLDY    66  58  75 SW9       29.95S
AURORA         CLEAR     63  61  93 S7        29.96S
LANSING*       PTCLDY    63  57  80 SW6       29.97S
WAUKEGAN       MOCLDY    62  61  96 SW7       29.93R
DUPAGE AIRPORT CLEAR     62  59  90 S6        29.95S
WHEELING       PTCLDY    65  61  87 SW6       29.96R
NORTHERLY ISL    N/A     67  57  70 S6          N/A
NORTHERLY ISL    N/A     67  57  70 S6          N/A
$$

LMZ740>746-291000-
SOUTHERN LAKE MICHIGAN

STATION/POSITION SKY/WX   TEMP    WIND        PRES    VSBY  WAVE
                          AIR SEA DIR/SP/G                  HT/PER
                          (F)     (DEG/KT/KT) (MB)    (MI)  (FT/S)
SOUTHERN BUOY              54 50  170/  8/ 10 1013.3          1/ 4
WILMETTE HARBOR            60 52  230/  4/  8   N/A           1
HARRISON CRIB              69     210/ 16/ 17   N/A
BURNHAM HARBOR             67     190/  3/  8   N/A
CALUMET HARBOR             66     190/  8/ 12 1014.0R
BURNS HARBOR               68     180/  7/ 13 1014.9S
MICHIGAN CITY              69     180/ 13/ 14   N/A
MICHIGAN CITY 6N           63 56  210/  8/ 10   N/A           1/ 3
ST. JOSEPH                 64 61  180/  4/  6   N/A           1/ 3
$$

ILZ025>027-034>036-040-047-049-050-058-095>099-291000-
WEST-CENTRAL ILLINOIS

CITY           SKY/WX    TMP DP  RH WIND       PRES   REMARKS
QUINCY         CLEAR     63  59  87 SW7       30.00S
MACOMB*        CLEAR     64  60  86 SW8       30.00S
PITTSFIELD*    CLEAR     66  62  87 SW3       30.03R
$$

ILZ028>032-037-038-041>044-048-051>054-059>061-291000-
CENTRAL ILLINOIS

CITY           SKY/WX    TMP DP  RH WIND       PRES   REMARKS
BLOOMINGTON    PTCLDY    64  64 100 S6        30.02S
DECATUR        CLEAR     67  64  90 SW6       30.02S
PEORIA         CLEAR     63  61  93 S6        29.99R
SPRINGFIELD    CLEAR     67  64  90 S6        30.01S
TAYLORVILLE    NOT AVBL
$$

ILZ033-039-045-046-055>057-062-063-291000-
EAST-CENTRAL ILLINOIS

CITY           SKY/WX    TMP DP  RH WIND       PRES   REMARKS
CHAMPAIGN      MOCLDY    64  61  90 SE5       30.03S
MATTOON        PTCLDY    69  65  86 SW6       30.03R
$$

ILZ079-100>102-291000-
SOUTHWEST ILLINOIS

CITY           SKY/WX    TMP DP  RH WIND       PRES   REMARKS
BELLEVILLE     PTCLDY    67  67 100 CALM      30.02R FOG
CAHOKIA*       CLEAR     66  63  90 CALM      30.02S
SPARTA*        CLEAR     70  66  89 SW5       30.04S
$$

ILZ064>066-069>071-074>076-080>082-084>086-088>090-092>094-291000-
SOUTH-CENTRAL ILLINOIS

CITY           SKY/WX    TMP DP  RH WIND       PRES   REMARKS
CARBONDALE     CLEAR     65  64  97 S3        30.04S FOG
EFFINGHAM*     PTCLDY    66  66 100 CALM      30.06R
MT. VERNON     CLOUDY    63  57  82 CALM      30.05S VSB 1/2
SALEM*         CLEAR     68  66  94 CALM      30.04S FOG
$$

ILZ067-068-072-073-078-083-087-091-291000-
SOUTHEAST ILLINOIS

CITY           SKY/WX    TMP DP  RH WIND       PRES   REMARKS
LAWRENCEVILLE  MOCLDY    68  67  96 S3        30.06R
FLORA*         CLEAR     66  65  96 S5        30.05S FOG
HARRISBURG*    CLEAR     66  66  98 CALM      30.05S
ROBINSON*      CLEAR     64  64  98 S6        30.06S
$$

ABBREVIATIONS USED IN REMARKS
   TC - TEMPERATURE IN CELSIUS
  WCI - WIND CHILL INDEX
   HX - HEAT INDEX
  VSB - VISIBILITY
$$





USA.gov is the U.S. government's official web portal to all federal, state and local government web resources and services.